Weather History for Branson, MO

Change the Weather History Date:

Monday, January 13, 2014

  Actual Average (KHRO) Record (KHRO)
Temperature  
Mean Temperature 50 °F 36 °F  
Max Temperature 59 °F 46 °F 78 °F (1928)
Min Temperature 41 °F 26 °F -6 °F (1918)
Degree Days  
Heating Degree Days 15 29  
Month to date heating degree days 377  
Since 1 July heating degree days 1976  
Cooling Degree Days 0 0  
Month to date cooling degree days 0  
Year to date cooling degree days 0  
Moisture  
Dew Point 30 °F    
Average Humidity 52    
Maximum Humidity 70    
Minimum Humidity 35    
Precipitation  
Precipitation 0.00 in 0.08 in 2.68 in (1995)
Month to date precipitation 1.09  
Year to date precipitation 1.09  
Snow  
Snow 0.00 in 0.10 in 6.00 in (1892)
Month to date snowfall 1.3  
Since 1 July snowfall 3.1  
Snow Depth -    
Sea Level Pressure  
Sea Level Pressure 29.81 in    
Wind  
Wind Speed 10 mph (WSW)    
Max Wind Speed 16 mph    
Max Gust Speed 25 mph    
Visibility 10 miles    
Events      
T = Trace of Precipitation, MM = Missing Value Source: NWS Daily Summary

Daily Weather History Graph

Daily Weather History Graph

Search for Another Location

Airport:

Trip Planner

Search our weather history database for the weather conditions in past years. The results will help you decide how hot, cold, wet, or windy it might be!

Date:

Astronomy

Jan. 13, 2014 Rise Set
Actual Time 7:24 AM CST 5:18 PM CST
Civil Twilight 6:56 AM CST 5:47 PM CST
Nautical Twilight 6:24 AM CST 6:18 PM CST
Astronomical Twilight 5:53 AM CST 6:50 PM CST
Moon 3:34 PM CST (1/13) 5:14 AM CST (1/13)
Length of Visible Light 10h 50m
Length of Day
9h 54m
Waxing Gibbous, 95% of the Moon is Illuminated
Jan 13
Waxing Gibbous
Jan 15
Full
Jan 23
Last Quarter
Jan 30
New
Feb 6
First Quarter

Hourly Weather History & Observations

Time (CST) Temp. Windchill Dew Point Humidity Pressure Visibility Wind Dir Wind Speed Gust Speed Precip Events Conditions
12:15 AM 59.0 °F - - N/A% 29.67 in 10.0 mi SSW 11.5 mph 19.6 mph N/A   Scattered Clouds
12:35 AM 57.2 °F - - N/A% 29.68 in 10.0 mi SSW 15.0 mph 24.2 mph N/A   Mostly Cloudy
12:55 AM 57.2 °F - - N/A% 29.68 in 10.0 mi SSW 11.5 mph 19.6 mph N/A   Scattered Clouds
1:15 AM 57.2 °F - - N/A% 29.69 in 10.0 mi SSW 10.4 mph 18.4 mph N/A   Overcast
1:35 AM 57.2 °F - - N/A% 29.70 in 10.0 mi SSW 10.4 mph 18.4 mph N/A   Overcast
1:55 AM 57.2 °F - - N/A% 29.70 in 10.0 mi SSW 9.2 mph 17.3 mph N/A   Overcast
2:15 AM 57.2 °F - - N/A% 29.70 in 10.0 mi SSW 12.7 mph 24.2 mph N/A   Overcast
2:35 AM 57.2 °F - - N/A% 29.70 in 10.0 mi SW 11.5 mph 19.6 mph N/A   Mostly Cloudy
2:55 AM 57.2 °F - - N/A% 29.70 in 10.0 mi SW 11.5 mph 19.6 mph N/A   Overcast
3:15 AM 57.2 °F - - N/A% 29.70 in 10.0 mi SW 10.4 mph 20.7 mph N/A   Overcast
3:35 AM 57.2 °F - - N/A% 29.70 in 10.0 mi WSW 10.4 mph 21.9 mph N/A   Overcast
3:55 AM 57.2 °F - - N/A% 29.70 in 10.0 mi WSW 12.7 mph 20.7 mph N/A   Overcast
4:15 AM 57.2 °F - - N/A% 29.69 in 10.0 mi WSW 12.7 mph 20.7 mph N/A   Mostly Cloudy
4:35 AM 55.4 °F - - N/A% 29.69 in 10.0 mi WSW 12.7 mph 20.7 mph N/A   Overcast
4:55 AM 55.4 °F - - N/A% 29.71 in 10.0 mi WSW 10.4 mph 17.3 mph N/A   Overcast
5:15 AM 55.4 °F - - N/A% 29.71 in 10.0 mi West 9.2 mph 18.4 mph N/A   Overcast
5:35 AM 53.6 °F - - N/A% 29.72 in 10.0 mi WNW 8.1 mph 21.9 mph N/A   Overcast
5:55 AM 51.8 °F - - N/A% 29.72 in 10.0 mi WNW 10.4 mph 16.1 mph N/A   Overcast
6:15 AM 50.0 °F - - N/A% 29.73 in 10.0 mi WNW 13.8 mph 19.6 mph N/A   Overcast
6:35 AM 46.4 °F 41.1 °F - N/A% 29.76 in 10.0 mi WNW 11.5 mph 19.6 mph N/A   Overcast
6:45 AM 44.6 °F 38.4 °F 33.8 °F 66% 29.77 in 10.0 mi NW 12.7 mph 19.6 mph N/A   Mostly Cloudy
7:50 AM 41.0 °F 34.7 °F 32.0 °F 70% 29.82 in 10.0 mi WNW 10.4 mph - N/A   Scattered Clouds
8:50 AM 42.8 °F 37.0 °F 32.0 °F 66% 29.85 in 10.0 mi WNW 10.4 mph 17.3 mph N/A   Partly Cloudy
9:45 AM 44.6 °F 42.2 °F 33.8 °F 66% 29.88 in 10.0 mi WNW 4.6 mph - N/A   Partly Cloudy
10:45 AM 46.4 °F 42.4 °F 33.8 °F 62% 29.89 in 10.0 mi West 8.1 mph - N/A   Mostly Cloudy
11:50 AM 50.0 °F - 33.8 °F 54% 29.87 in 10.0 mi WNW 8.1 mph - N/A   Mostly Cloudy
12:45 PM 50.0 °F - 33.8 °F 54% 29.85 in 10.0 mi West 8.1 mph 19.6 mph N/A   Scattered Clouds
1:48 PM 51.8 °F - 32.0 °F 47% 29.84 in 10.0 mi WNW 13.8 mph 18.4 mph N/A   Scattered Clouds
2:47 PM 53.6 °F - 30.2 °F 41% 29.85 in 10.0 mi WNW 15.0 mph 20.7 mph N/A   Scattered Clouds
3:46 PM 53.6 °F - 26.6 °F 35% 29.87 in 10.0 mi NW 16.1 mph 25.3 mph N/A   Partly Cloudy
4:45 PM 50.0 °F - 24.8 °F 37% 29.89 in 10.0 mi North - - N/A   Partly Cloudy
5:46 PM 48.2 °F - 24.8 °F 40% 29.90 in 10.0 mi WNW 8.1 mph - N/A   Clear
6:47 PM 44.6 °F 41.4 °F 26.6 °F 49% 29.93 in 10.0 mi West 5.8 mph - N/A   Clear
7:58 PM 44.6 °F 40.7 °F 24.8 °F 46% 29.94 in 10.0 mi WSW 6.9 mph - N/A   Clear
8:46 PM 42.8 °F 39.3 °F 24.8 °F 49% 29.93 in 10.0 mi WSW 5.8 mph - N/A   Clear
9:15 PM 41.0 °F 38.0 °F - N/A% 29.93 in 10.0 mi WSW 4.6 mph - N/A   Clear
9:35 PM 41.0 °F 37.1 °F - N/A% 29.93 in 10.0 mi WSW 5.8 mph - N/A   Clear
9:55 PM 41.0 °F 38.0 °F - N/A% 29.93 in 10.0 mi WSW 4.6 mph - N/A   Clear
10:15 PM 41.0 °F 37.1 °F - N/A% 29.93 in 10.0 mi WSW 5.8 mph - N/A   Clear
10:35 PM 41.0 °F 38.0 °F - N/A% 29.93 in 10.0 mi WSW 4.6 mph - N/A   Clear
10:55 PM 41.0 °F 37.1 °F - N/A% 29.93 in 10.0 mi WSW 5.8 mph - N/A   Clear
11:15 PM 41.0 °F 38.0 °F - N/A% 29.93 in 10.0 mi SW 4.6 mph - N/A   Clear
11:35 PM 41.0 °F 36.4 °F - N/A% 29.92 in 10.0 mi SW 6.9 mph - N/A   Clear
11:55 PM 41.0 °F 36.4 °F - N/A% 29.92 in 10.0 mi SW 6.9 mph - N/A   Clear